Flag for Germany Weather past 2 weeks in Kaufbeuren, Bavaria, Germany

Now
39 °F

Passing clouds.


Feels Like: 39 °F
Forecast: 45 / 66 °F
Wind: 2 mph from West

Location: Altenstadt Airport


UV Index: 3 (Moderate)

Visibility: N/A


Pressure: 29.86 "Hg

Humidity: 93%

Dew point: 37 °F

Location of KaufbeurenLocation

Historic Weather in Kaufbeuren

°F

Kaufbeuren temperature yesterday

Maximum temperature yesterday: 64 °F (at 2:20 PM)
Minimum temperature yesterday: 39 °F (at 5:20 AM)
Average temperature yesterday: 53 °F

Past Weeks' High & Low Weather Summary

 TemperatureHumidityPressure
High64 °F (Apr 24, 2:20 PM)100% (Apr 11, 4:20 AM)30.33 "Hg (Apr 11, 4:20 AM)
Low27 °F (Apr 17, 3:20 AM)37% (Apr 17, 3:20 PM)29.62 "Hg (Apr 21, 3:20 AM)
Average45 °F78%29.99 "Hg
* Reported Apr 10 6:20 AM — Apr 25 6:20 AM, Kaufbeuren, Weather by CustomWeather, © 2014

Note: Actual official high and low records may vary slightly from our data, if they occured in-between our weather recording intervals... More about our weather records

Advertising

Historic Weather Conditions — Data for Previous 24 hours

 ConditionsComfort  
Time TempWeatherWind HumidityBarometerVisibility
6:20 AM
Apr 25
39 °FPassing clouds.2 mph93%29.86 "HgN/A
5:20 AM41 °FQuite cool.1 mph93%29.86 "HgN/A
4:20 AM43 °FQuite cool.3 mph87%29.86 "HgN/A
3:20 AM45 °FQuite cool.5 mph87%29.89 "HgN/A
2:20 AM45 °FQuite cool.1 mph81%29.89 "HgN/A
1:20 AM50 °FCool.6 mph71%29.92 "HgN/A
12:20 AM48 °FCool.5 mph76%29.95 "HgN/A
11:20 PM
Apr 24
50 °FCool.6 mph71%29.95 "HgN/A
10:20 PM50 °FCool.3 mph67%29.98 "HgN/A
9:20 PM55 °FRefreshingly cool.5 mph55%29.98 "HgN/A
8:20 PM59 °FPassing clouds.12 mph48%29.98 "HgN/A
7:20 PM63 °FPassing clouds.12 mph45%29.98 "HgN/A
7:00 PM63 °FPassing clouds.12 mph42%29.98 "HgN/A
6:20 PM64 °FPassing clouds.12 mph43%29.98 "HgN/A
5:20 PM64 °FPassing clouds.14 mph43%29.98 "HgN/A
4:20 PM63 °FPassing clouds.13 mph42%30.01 "HgN/A
3:20 PM63 °FPassing clouds.16 mph49%30.04 "HgN/A
2:20 PM64 °FPassing clouds.15 mph43%30.04 "HgN/A
1:20 PM63 °FScattered clouds.13 mph45%30.07 "HgN/A
12:20 PM61 °FScattered clouds.12 mph48%30.07 "HgN/A
11:20 AM61 °FPassing clouds.8 mph55%30.09 "HgN/A
10:20 AM57 °FPassing clouds.3 mph63%30.09 "HgN/A
9:20 AM54 °FPassing clouds.1 mph77%30.09 "HgN/A
8:20 AM45 °FPassing clouds.2 mph93%30.09 "HgN/A
7:20 AM39 °FFog.3 mph100%30.09 "HgN/A
Weather by CustomWeather, © 2014

See weather overview